GW3373 Weather Reports


time (UTC)temp
F
wind
direction
speed
knots
gust
knots
rain 1hr
in
rain 24hr
in
rain mn
in
humidity
%
barometer
mb
20260506231516 58 205 0.9 0.9 0.00 0.21 0.21 99 1005.4
20260506230515 58 205 0.0 0.9 0.00 0.21 0.21 99 1005.5
20260506225510 58 206 0.9 1.7 0.00 0.21 0.21 99 1005.4
20260506224509 58 205 0.9 1.7 0.17 0.21 0.21 99 1005.5
20260506223507 58 205 1.7 1.7 0.07 0.18 0.18 99 1005.5
20260506222506 58 205 1.7 1.7 0.05 0.17 0.17 99 1005.7
20260506221505 58 206 0.9 1.7 0.05 0.17 0.17 99 1005.7
20260506220503 58 206 0.9 0.9 0.12 0.16 0.16 99 1005.7
20260506215502 58 206 0.9 0.9 0.00 0.14 0.14 99 1005.7
20260506214500 58 207 0.0 0.9 0.07 0.14 0.14 99 1005.8
20260506213455 58 205 1.7 1.7 0.05 0.13 0.13 99 1005.9
20260506212453 58 217 0.9 0.9 0.00 0.12 0.12 99 1006.0
20260506211450 58 218 0.9 0.9 0.00 0.12 0.12 99 1005.9
20260506210450 58 218 1.7 1.7 0.00 0.12 0.12 99 1006.2
20260506205449 58 220 1.7 1.7 0.00 0.12 0.12 99 1006.2
20260506204449 58 203 2.6 2.6 0.00 0.12 0.12 99 1006.3
20260506203450 58 227 1.7 1.7 0.07 0.12 0.12 99 1006.3
20260506202450 58 206 0.9 2.6 0.00 0.11 0.11 99 1006.5
20260506201449 58 218 1.7 1.7 0.07 0.11 0.11 99 1006.6
20260506200448 59 240 0.9 0.9 0.05 0.10 0.10 99 1006.5
20260506195448 59 222 1.7 1.7 0.07 0.09 0.09 99 1006.6
20260506194447 59 228 1.7 1.7 0.00 0.08 0.08 99 1006.3
20260506193447 59 200 2.6 2.6 0.05 0.08 0.08 99 1006.4
20260506192447 60 184 2.6 2.6 0.07 0.07 0.07 98 1006.6
20260506191446 60 184 2.6 2.6 0.05 0.06 0.06 99 1006.7
20260506190445 60 217 1.7 1.7 0.05 0.06 0.06 98 1006.6
20260506185445 60 241 0.0 0.9 0.07 0.05 0.05 98 1006.7
20260506184445 60 224 0.9 0.9 0.05 0.04 0.04 98 1006.5
20260506183443 61 230 0.9 1.7 0.07 0.03 0.03 96 1006.8
20260506182438 61 213 1.7 1.7 0.05 0.02 0.02 95 1007.1
20260506181433 62 226 0.9 1.7 0.00 0.01 0.01 92 1007.4
20260506180431 63 251 0.0 0.0 0.00 0.00 0.00 89 1007.1
20260506175431 64 227 2.6 3.5 0.00 0.00 0.00 82 1007.3
20260506174426 66 217 1.7 2.6 0.00 0.00 0.00 76 1007.5
20260506173425 68 188 3.5 3.5 0.00 0.00 0.00 71 1007.1
20260506172425 69 228 2.6 2.6 0.00 0.00 0.00 67 1007.1
20260506171425 69 203 3.5 6.1 0.00 0.00 0.00 67 1007.1
20260506170425 70 218 4.3 6.1 0.00 0.00 0.00 66 1007.0
20260506165422 70 210 3.5 3.5 0.00 0.00 0.00 64 1007.2
20260506164420 70 204 4.3 6.1 0.00 0.00 0.00 63 1007.2
20260506163419 70 184 3.5 5.2 0.00 0.00 0.00 64 1007.2
20260506162418 69 202 1.7 2.6 0.00 0.00 0.00 68 1007.5
20260506161413 69 231 1.7 1.7 0.00 0.00 0.00 67 1007.6
20260506160414 69 224 2.6 3.5 0.00 0.00 0.00 67 1007.7
20260506155409 69 218 1.7 1.7 0.00 0.00 0.00 67 1008.1
20260506153530 69 187 1.7 2.6 0.00 0.00 0.00 68 1008.2
20260506152530 69 215 1.7 2.6 0.00 0.00 0.00 69 1008.2
20260506151526 69 232 0.9 1.7 0.00 0.00 0.00 68 1008.4
20260506150525 68 269 1.7 1.7 0.00 0.00 0.00 70 1008.5
20260506145525 69 184 2.6 2.6 0.00 0.00 0.00 68 1008.6
20260506144525 69 230 0.9 1.7 0.00 0.00 0.00 71 1008.5
20260506143520 68 224 0.9 1.7 0.00 0.00 0.00 71 1008.8
20260506142515 67 207 0.9 1.7 0.00 0.00 0.00 73 1008.9
20260506141511 67 190 2.6 3.5 0.00 0.00 0.00 74 1008.6
20260506140506 66 207 1.7 3.5 0.00 0.00 0.00 74 1008.5
20260506135506 66 228 1.7 1.7 0.00 0.00 0.00 76 1008.4
20260506134503 66 208 1.7 1.7 0.00 0.00 0.00 76 1008.7
20260506133503 66 221 1.7 1.7 0.00 0.00 0.00 77 1008.7
20260506132502 66 224 1.7 1.7 0.00 0.00 0.00 78 1008.5
20260506131457 65 213 0.9 1.7 0.00 0.00 0.00 79 1008.8
20260506130456 65 256 1.7 1.7 0.00 0.00 0.00 79 1009.2
20260506125452 64 211 0.9 1.7 0.00 0.00 0.00 81 1009.5
20260506124447 63 237 0.9 0.9 0.00 0.00 0.00 81 1009.2
20260506123442 63 236 0.9 1.7 0.00 0.00 0.00 81 1009.2
20260506122442 63 209 2.6 2.6 0.00 0.00 0.00 81 1009.0
20260506121437 62 202 2.6 2.6 0.00 0.00 0.00 82 1009.0
20260506120432 62 228 1.7 2.6 0.00 0.00 0.00 83 1009.3
20260506115427 62 203 1.7 2.6 0.00 0.00 0.00 84 1009.1
20260506114422 62 233 0.9 0.9 0.00 0.00 0.00 84 1008.9
20260506113418 60 216 2.6 2.6 0.00 0.00 0.00 86 1009.6
20260506112418 60 292 0.9 1.7 0.00 0.00 0.00 86 1009.2
20260506111413 60 220 1.7 2.6 0.00 0.00 0.00 87 1009.5
20260506110408 59 224 0.9 1.7 0.00 0.00 0.00 86 1009.4
20260506105406 59 216 0.9 1.7 0.00 0.00 0.00 87 1009.4
20260506104401 59 209 2.6 2.6 0.00 0.00 0.00 87 1009.4
20260506103356 58 210 0.9 1.7 0.00 0.00 0.00 88 1009.4
20260506102351 58 210 0.9 0.9 0.00 0.00 0.00 88 1009.4
20260506101350 57 210 0.9 0.9 0.00 0.00 0.00 89 1009.3
20260506100346 57 210 1.7 1.7 0.00 0.00 0.00 89 1009.2
20260506095341 57 211 1.7 1.7 0.00 0.00 0.00 88 1009.4
20260506094337 57 212 0.9 0.9 0.00 0.00 0.00 88 1009.2
20260506093337 58 209 1.7 2.6 0.00 0.00 0.00 88 1009.4
20260506092333 58 214 0.9 0.9 0.00 0.00 0.00 87 1009.1
20260506091327 58 221 0.9 0.9 0.00 0.00 0.00 86 1009.3
20260506090322 58 232 1.7 2.6 0.00 0.00 0.00 86 1009.3
20260506085320 58 229 1.7 1.7 0.00 0.00 0.00 86 1009.3
20260506084320 58 225 1.7 1.7 0.00 0.00 0.00 85 1009.3
20260506083314 58 235 0.0 0.0 0.00 0.00 0.00 85 1009.5
20260506082313 58 236 0.9 0.9 0.00 0.00 0.00 85 1009.5
20260506081308 59 238 0.9 0.9 0.00 0.00 0.00 85 1009.4
20260506080307 59 234 0.9 0.9 0.00 0.00 0.00 84 1009.4
20260506073257 60 236 0.9 1.7 0.00 0.00 0.00 81 1009.4
20260506072252 60 252 0.0 0.9 0.00 0.00 0.00 81 1009.4
20260506071247 60 238 0.9 1.7 0.00 0.00 0.00 80 1009.2
20260506070247 60 203 1.7 3.5 0.00 0.00 0.00 79 1009.2
20260506062229 61 239 0.9 0.9 0.00 0.00 0.00 76 1009.2
20260506061229 61 266 2.6 2.6 0.00 0.00 0.00 76 1009.2
20260506060224 61 247 0.9 0.9 0.00 0.00 0.00 76 1009.2
20260506051214 62 229 1.7 1.7 0.00 0.00 0.00 71 1009.4
20260506050209 63 251 0.9 0.9 0.00 0.00 0.00 71 1009.4
20260506044209 63 250 0.0 0.0 0.00 0.00 0.00 69 1009.5
20260506043204 63 264 0.9 0.9 0.00 0.00 0.00 70 1009.4
20260506042200 63 232 0.9 1.7 0.00 0.00 0.00 68 1009.5
20260506041155 63 236 1.7 2.6 0.00 0.00 0.00 69 1009.4
20260506040155 63 189 1.7 2.6 0.00 0.00 0.00 69 1009.6
20260506035155 63 309 0.9 1.7 0.00 0.00 0.00 69 1009.5
20260506034154 62 189 1.7 2.6 0.00 0.00 0.00 69 1009.7
20260506033154 62 233 1.7 1.7 0.00 0.00 0.00 69 1009.4
20260506032154 63 234 0.9 0.9 0.00 0.00 0.00 68 1009.4
20260506031154 63 216 1.7 2.6 0.00 0.00 0.00 68 1009.3
20260506030149 63 259 1.7 1.7 0.00 0.00 0.00 69 1009.4
20260506025148 63 237 1.7 1.7 0.00 0.00 0.00 68 1009.3
20260506024147 63 254 2.6 2.6 0.00 0.00 0.00 68 1009.0
20260506023147 63 316 1.7 1.7 0.00 0.00 0.00 67 1009.1
20260506022147 63 240 0.9 0.9 0.00 0.00 0.00 67 1009.2
20260506021142 64 205 1.7 1.7 0.00 0.00 0.00 67 1009.3
20260506020142 64 294 0.0 0.0 0.00 0.00 0.00 67 1009.3
20260506015137 64 208 1.7 1.7 0.00 0.00 0.00 66 1009.2
20260506014136 65 263 0.9 0.9 0.00 0.00 0.00 65 1009.1
20260506013131 65 251 0.9 0.9 0.00 0.00 0.00 65 1009.1
20260506012129 65 208 1.7 1.7 0.00 0.00 0.00 63 1008.6
20260506011129 66 241 0.9 0.9 0.00 0.00 0.00 63 1008.6
20260506010124 66 188 3.5 3.5 0.00 0.00 0.00 61 1008.5
20260506005124 67 193 2.6 2.6 0.00 0.00 0.00 60 1008.2
20260506004123 67 183 3.5 5.2 0.00 0.00 0.00 59 1008.5
20260506003122 67 201 2.6 2.6 0.00 0.00 0.00 59 1008.1
20260506002120 67 268 0.9 1.7 0.00 0.00 0.00 60 1008.0
20260506001119 68 246 0.9 0.9 0.00 0.00 0.00 59 1007.9
20260506000119 69 249 1.7 2.6 0.00 0.00 0.00 57 1007.9
20260505235120 69 244 1.7 2.6 0.00 0.00 0.00 56 1007.6
20260505234119 70 211 2.6 2.6 0.00 0.00 0.00 54 1007.3
20260505233114 70 188 2.6 2.6 0.00 0.00 0.00 53 1007.1